Location: Jackson Park
(37.2862°N, 79.9123°W)
Time: 23:44:55
(UTC+00:00)

A-11 Canister half - Visible Passes

Search period start: 11 May 2026 00:00
Search period end: 21 May 2026 00:00
Orbit: 1523 x 1685 km, 47.3° (Epoch: 11 May)

Date Brightness Start Highest point End Pass type
(mag) Time Alt. Az. Time Alt. Az. Time Alt. Az.
11 May 9.9 01:27:29 10° W 01:36:54 50° N 01:46:37 10° ENE visible
11 May 9.7 03:34:01 10° WNW 03:43:43 53° NNE 03:52:33 14° E visible
11 May 8.9 05:39:26 10° WNW 05:49:32 80° SW 05:50:43 72° SSE visible
11 May 10.4 07:45:55 10° WNW 07:48:53 18° W 07:48:53 18° W visible
12 May 9.9 01:05:33 10° W 01:14:56 51° NNW 01:24:40 10° ENE visible
12 May 9.7 03:12:07 10° WNW 03:21:46 52° NNE 03:30:42 13° E visible
12 May 8.9 05:17:33 10° WNW 05:27:39 84° SW 05:28:53 72° SSE visible
12 May 10.4 07:23:52 10° WNW 07:27:05 19° W 07:27:05 19° W visible
13 May 9.9 00:43:37 10° W 00:53:00 52° NNW 01:02:43 10° ENE visible
13 May 9.7 02:50:13 10° WNW 02:59:48 52° NNE 03:09:06 12° E visible
13 May 9.0 04:55:41 10° WNW 05:05:45 87° SW 05:07:18 69° SE visible
13 May 10.3 07:01:50 10° WNW 07:05:31 21° W 07:05:31 21° W visible
14 May 9.8 02:28:19 10° WNW 02:37:51 51° NNE 02:47:38 10° E visible
14 May 9.0 04:33:47 10° WNW 04:43:52 90° SW 04:45:53 64° SE visible
14 May 10.2 06:39:50 10° WNW 06:44:05 23° W 06:44:05 23° W visible
15 May 9.8 02:06:25 10° WNW 02:15:53 50° N 02:25:38 10° E visible
15 May 9.0 04:11:55 10° WNW 04:21:58 88° NNE 04:24:33 58° ESE visible
15 May 10.1 06:17:50 10° WNW 06:22:46 26° W 06:22:46 26° W visible
16 May 9.8 01:44:30 10° WNW 01:53:56 49° N 02:03:38 10° E visible
16 May 9.0 03:50:03 10° WNW 04:00:04 85° NNE 04:03:18 51° ESE visible
16 May 10.0 05:55:51 10° WNW 06:01:33 30° W 06:01:33 30° W visible
17 May 9.8 01:22:36 10° WNW 01:31:59 49° N 01:41:38 10° E visible
17 May 9.1 03:28:11 10° WNW 03:38:10 82° NNE 03:42:08 44° ESE visible
17 May 9.9 05:33:53 10° WNW 05:40:22 33° WSW 05:40:22 33° WSW visible
18 May 9.9 01:00:41 10° WNW 01:10:01 48° N 01:19:39 10° E visible
18 May 9.1 03:06:19 10° WNW 03:16:16 79° NNE 03:21:02 37° ESE visible
18 May 9.7 05:11:56 10° WNW 05:19:16 37° WSW 05:19:16 37° WSW visible
19 May 9.9 00:38:46 10° WNW 00:48:04 48° N 00:57:39 10° ENE visible
19 May 9.1 02:44:27 10° WNW 02:54:22 77° NNE 02:59:58 31° ESE visible
19 May 9.6 04:49:58 10° WNW 04:58:13 41° WSW 04:58:13 41° WSW visible
20 May 9.2 02:22:35 10° WNW 02:32:28 74° NNE 02:38:58 26° ESE visible
20 May 9.5 04:28:03 10° WNW 04:37:13 44° SW 04:37:13 44° SW visible
